Flag for Finland Weather past 2 weeks in Rovaniemi, Finland

Now
48 °F

Scattered showers. Overcast.


Feels Like: 44 °F
Forecast: 47 / 55 °F
Wind: 9 mph from Southeast

Location: Rovaniemi Airport

Current Time: May 6, 2015 at 11:37:41 PM

Latest Report: May 6, 2015 at 10:50 PM


Visibility: N/A

Pressure: 29.71 "Hg

Humidity: 62%

Dew point: 36 °F

Location of RovaniemiLocation

Historic Weather in Rovaniemi — Graph

°F

Rovaniemi temperature yesterday

Maximum temperature yesterday: 50 °F (at 4:50 PM)
Minimum temperature yesterday: 28 °F (at 3:20 AM)
Average temperature yesterday: 41 °F

Past Weeks' High & Low Weather Summary

 TemperatureHumidityPressure
High54 °F (May 6, 3:20 PM)100% (Apr 27, 1:20 PM)30.07 "Hg (Apr 27, 1:20 PM)
Low23 °F (Apr 25, 6:20 AM)28% (Apr 30, 3:50 PM)29.15 "Hg (Apr 23, 6:20 AM)
Average35 °F67%29.73 "Hg
* Reported Apr 21 10:20 PM — May 6 10:20 PM, Rovaniemi, Weather by CustomWeather, © 2015

Note: Actual official high and low records may vary slightly from our data, if they occured in-between our weather recording intervals... More about our weather records

Advertising

Rovaniemi weather history for previous 24 hours

 ConditionsComfort  
Time TempWeatherWind HumidityBarometerVisibility
10:20 PM
Wed, May 6
50 °FScattered showers. Broken clouds.9 mph58%29.74 "HgN/A
9:50 PM50 °FSunny.8 mph54%29.74 "Hg10 mi
9:20 PM48 °FSunny.9 mph58%29.74 "Hg10 mi
8:50 PM50 °FSunny.9 mph54%29.74 "Hg10 mi
8:20 PM50 °FPartly sunny.8 mph54%29.74 "HgN/A
7:50 PM52 °FSunny.9 mph47%29.77 "Hg10 mi
7:20 PM52 °FBroken clouds.10 mph47%29.77 "HgN/A
6:50 PM54 °FPartly sunny.9 mph47%29.77 "HgN/A
6:20 PM54 °FPassing clouds.9 mph44%29.77 "HgN/A
5:50 PM54 °FSunny.13 mph44%29.77 "Hg10 mi
5:20 PM54 °FPassing clouds.12 mph44%29.80 "HgN/A
4:50 PM54 °FPassing clouds.12 mph44%29.80 "HgN/A
4:20 PM54 °FPassing clouds.12 mph41%29.80 "HgN/A
3:50 PM54 °FSunny.15 mph38%29.80 "Hg10 mi
3:20 PM54 °FScattered clouds.12 mph38%29.83 "HgN/A
2:50 PM52 °FPartly sunny.13 mph41%29.83 "HgN/A
2:20 PM52 °FPartly sunny.13 mph41%29.83 "HgN/A
1:50 PM50 °FBroken clouds.14 mph43%29.86 "HgN/A
1:20 PM50 °FPassing clouds.13 mph43%29.86 "HgN/A
12:50 PM48 °FPassing clouds.10 mph43%29.89 "HgN/A
12:20 PM48 °FPassing clouds.12 mph43%29.89 "HgN/A
11:50 AM46 °FPassing clouds.12 mph50%29.89 "HgN/A
11:20 AM48 °FSunny.12 mph46%29.92 "Hg10 mi
10:50 AM48 °FBroken clouds.12 mph43%29.92 "HgN/A
10:20 AM46 °FSunny.12 mph50%29.92 "Hg10 mi
9:50 AM45 °FSunny.10 mph49%29.92 "Hg10 mi
9:20 AM43 °FPassing clouds.9 mph53%29.92 "HgN/A
8:50 AM43 °FPartly sunny.8 mph53%29.95 "HgN/A
8:20 AM43 °FPartly sunny.7 mph53%29.95 "HgN/A
7:50 AM43 °FPassing clouds.8 mph53%29.95 "HgN/A
7:20 AM41 °FSunny.8 mph61%29.95 "Hg10 mi
6:50 AM41 °FPassing clouds.8 mph61%29.95 "HgN/A
6:20 AM41 °FSunny.9 mph61%29.98 "Hg10 mi
5:50 AM41 °FPassing clouds.8 mph61%29.98 "HgN/A
5:20 AM41 °FPassing clouds.7 mph61%29.98 "HgN/A
4:50 AM41 °FPassing clouds.6 mph61%29.98 "HgN/A
4:20 AM41 °FPassing clouds.5 mph66%29.98 "HgN/A
3:50 AM43 °FPassing clouds.7 mph61%29.98 "HgN/A
3:20 AM43 °FPassing clouds.8 mph61%29.98 "HgN/A
2:50 AM45 °FClear.10 mph57%29.98 "Hg10 mi
2:20 AM45 °FPassing clouds.10 mph57%29.98 "HgN/A
1:50 AM45 °FPassing clouds.9 mph53%29.98 "HgN/A
1:20 AM45 °FClear.9 mph53%29.98 "Hg10 mi
12:50 AM45 °FPassing clouds.9 mph53%29.98 "HgN/A
12:20 AM45 °FPassing clouds.9 mph49%29.98 "HgN/A
11:50 PM
Tue, May 5
45 °FPassing clouds.8 mph49%29.98 "HgN/A
11:20 PM45 °FScattered showers. Overcast.7 mph49%30.01 "HgN/A
Weather by CustomWeather, © 2015

See weather overviewHow to use our weather pages